0 HST 1 20580U 90037B 25285.44090307 .00010416 00000-0 37510-3 0 9994 2 20580 28.4700 329.3539 0001773 270.8410 89.1982 15.26871265750611 0 ISS (ZARYA) 1 25544U 98067A 25285.84899874 .00015059 00000-0 27241-3 0 9998 2 25544 51.6332 83.9290 0000804 256.3096 103.7803 15.49886569533415 0 CXO 1 25867U 99040B 25288.43817974 .00000826 00000-0 00000-0 0 9994 2 25867 51.9505 124.6447 8239156 310.6333 0.0894 0.37806235 16390